Wetbulb
56.09 55.48 55.04 54.93 54.81 54.48 54.16 54.09 54.54 54.50 54.89 54.95 54.32 54.95 54.77 54.72 54.43 49.46 44.39 49.03 51.42 56.70 58.00 52.81 51.59 51.77 45.64 42.26 42.18 40.97 32.61 28.63 32.45 35.94 37.67 42.28 41.62 46.93 48.88 46.57 47.37 63.52 64.55 65.86 69.68
55.06 54.57 54.93 54.89 54.14 53.86 53.86 53.65 53.53 54.23 54.44 55.25 55.07 54.58 53.81 54.41 49.40 45.86 52.15 55.61 57.56 57.67 52.20 49.35 46.69 45.59 41.24 39.83 39.90 37.60 31.01 33.04 38.66 40.34 39.04 42.38 42.58 43.97 45.36 45.35 45.23 55.79 66.16 68.15 68.83
54.73 54.56 54.85 54.24 54.02 53.60 53.57 53.35 53.54 53.30 53.63 54.17 54.99 54.33 54.15 53.56 41.40 42.33 55.60 57.85 58.32 57.71 54.04 51.17 47.74 44.07 37.94 36.23 36.92 36.84 34.98 38.09 39.80 41.89 42.95 42.84 42.32 43.97 42.76 40.76 44.84 46.14 63.03 66.27 67.39
53.72 54.19 53.97 53.75 53.57 53.49 53.16 52.98 52.98 53.36 53.50 53.17 53.34 53.94 54.07 49.14 33.64 43.62 62.70 58.79 59.15 56.58 53.94 49.67 44.87 40.15 37.34 35.11 37.46 32.77 37.55 39.84 40.85 42.53 42.46 42.21 44.89 43.46 42.64 43.97 47.23 55.25 64.13 66.16 66.43
52.79 52.90 53.02 52.67 52.79 52.93 52.87 52.85 52.83 53.02 52.83 52.83 53.00 53.67 51.02 42.56 41.52 49.59 56.95 53.48 57.33 54.34 51.45 48.37 43.00 39.89 36.52 37.06 37.28 33.91 37.15 38.96 41.82 41.07 40.50 42.17 42.02 42.91 41.91 45.99 48.03 47.65 55.30 65.08 65.93
51.81 51.92 51.77 51.77 51.75 51.96 52.41 52.43 52.57 52.18 52.12 52.07 52.87 53.22 47.69 37.37 48.78 50.49 49.48 49.63 52.95 52.06 50.77 49.30 45.09 42.40 38.61 37.07 37.81 38.85 39.16 40.40 39.92 39.96 40.30 40.47 41.63 42.14 43.83 46.41 46.71 46.98 52.05 62.64 65.52
51.60 51.47 51.58 51.77 51.75 51.81 52.34 52.14 51.93 52.07 52.00 52.49 52.65 50.77 44.88 40.63 49.66 49.97 48.93 46.22 51.09 53.68 49.84 51.84 48.70 45.45 41.95 37.13 40.91 39.38 34.90 37.89 38.28 39.77 39.70 40.17 38.97 39.66 44.65 45.90 45.25 48.82 60.52 63.28 65.04
52.47 52.30 51.57 51.91 52.43 52.53 52.47 52.41 52.10 52.20 52.56 52.88 52.82 49.35 41.03 48.80 50.69 48.57 48.95 47.09 48.74 48.35 47.80 48.31 51.99 45.04 40.20 40.93 40.27 35.72 34.27 32.33 36.40 39.36 40.09 40.30 34.40 41.11 44.18 44.35 44.71 45.66 58.10 62.11 63.03
52.07 51.90 51.15 51.00 52.13 52.47 52.26 51.93 52.47 51.99 52.66 52.76 48.44 46.34 37.80 50.10 46.93 49.16 48.90 45.19 46.61 47.56 47.67 49.88 50.59 45.20 42.59 36.61 32.58 33.50 29.22 29.75 34.59 38.98 39.71 38.20 33.85 41.57 43.68 43.60 43.92 43.78 54.44 60.52 60.39
51.07 51.13 51.24 50.88 51.67 51.95 51.69 50.92 50.43 49.73 50.00 50.12 48.90 42.22 42.46 41.00 48.26 50.56 50.59 48.16 45.10 45.16 42.91 42.83 44.42 40.07 38.65 35.26 30.86 29.52 31.56 33.92 34.23 37.70 37.92 35.10 34.47 41.21 41.55 42.87 43.57 43.28 45.00 57.93 59.31
50.32 50.92 50.86 51.26 51.53 51.22 49.06 44.25 35.72 35.45 41.04 39.50 40.51 41.27 43.41 47.92 51.01 49.06 50.03 46.34 45.54 42.20 35.35 40.48 39.80 35.85 38.39 40.41 39.52 37.04 34.92 34.41 36.67 40.87 37.63 35.32 35.55 38.44 40.04 39.24 40.72 42.06 42.79 43.88 56.35
50.15 50.18 50.79 51.08 50.28 50.54 46.69 38.14 39.66 39.47 33.30 39.94 39.69 41.28 45.31 45.98 40.43 43.63 49.26 43.20 41.15 37.73 38.20 37.77 36.09 40.92 42.37 41.73 39.63 37.04 34.97 33.95 37.22 39.79 36.95 35.60 35.31 38.42 38.88 39.58 40.62 42.00 42.41 43.59 44.98
50.60 50.75 50.79 50.81 50.51 44.02 38.67 40.05 43.77 41.41 32.39 35.37 39.27 38.92 40.15 42.92 38.93 40.19 45.07 44.54 40.42 38.95 35.70 34.67 38.83 43.45 40.99 38.88 36.75 37.08 35.66 34.53 35.74 38.27 37.61 35.81 33.73 36.66 40.21 39.80 41.11 42.00 43.08 43.70 44.51
50.48 50.67 50.20 50.36 44.41 40.07 39.58 44.68 42.01 41.23 25.58 29.11 36.01 40.81 43.68 45.60 40.10 46.79 46.95 42.52 41.43 37.72 38.05 36.72 41.80 40.95 39.83 38.15 38.53 32.96 40.56 38.63 37.95 34.25 28.97 35.38 26.37 33.34 37.04 38.93 40.42 41.18 41.44 41.87 43.57
50.51 50.12 50.06 50.03 44.73 39.85 42.17 41.45 43.49 40.16 15.51 33.44 39.39 47.41 47.19 42.55 43.19 44.61 50.54 44.32 36.87 38.24 40.87 37.07 39.23 39.60 37.99 39.28 41.79 36.82 42.74 40.49 40.20 33.73 29.75 30.79 29.00 32.56 36.08 36.81 39.75 42.14 46.22 47.98 48.89
50.72 50.77 50.21 44.66 41.79 42.38 43.64 44.60 42.03 29.95 18.42 31.80 39.03 38.91 38.41 40.74 42.28 45.44 45.60 46.56 44.57 38.13 40.94 39.77 45.55 43.30 42.34 43.76 43.54 43.82 41.24 40.18 36.18 30.78 24.48 29.72 29.82 30.11 33.36 39.99 41.84 44.90 49.12 51.10 51.46
50.47 50.49 47.58 46.43 39.05 41.49 42.58 41.97 29.46 21.90 34.12 31.00 33.56 37.25 36.31 36.60 39.32 39.96 39.35 38.20 35.23 31.43 31.67 38.91 40.96 44.03 45.97 40.58 43.56 41.80 37.49 26.31 23.56 22.31 23.19 31.60 29.74 31.00 41.45 44.41 45.19 45.31 48.36 50.27 52.10
49.84 49.06 43.68 44.25 43.39 42.27 42.18 35.65 22.22 29.12 30.37 37.21 36.80 35.56 33.16 37.88 38.71 38.82 34.89 35.38 39.32 38.63 33.65 32.39 31.39 40.63 45.04 41.91 39.39 37.73 35.73 24.35 19.95 20.49 23.18 32.24 27.59 32.74 44.99 47.64 49.85 49.76 50.06 51.16 51.60
48.88 40.86 39.24 40.91 42.67 42.97 38.02 25.53 26.53 32.64 35.60 34.78 34.53 31.75 31.96 36.30 37.02 38.14 34.42 35.62 39.82 41.48 34.85 34.73 33.97 43.50 44.75 44.49 43.23 39.19 34.04 35.45 28.03 27.60 26.08 29.77 37.04 43.46 46.41 46.95 49.29 48.59 49.84 49.86 50.59
43.15 35.90 36.78 42.88 43.81 40.60 31.42 26.75 33.81 35.85 37.43 37.17 30.58 33.10 29.17 32.02 33.50 35.99 34.34 39.06 38.28 42.54 44.95 39.47 34.63 41.71 43.96 45.62 45.24 41.34 40.96 32.49 30.33 23.04 21.56 31.60 33.33 35.71 43.01 45.74 48.16 47.73 48.46 50.30 50.92
37.31 32.75 39.06 44.50 41.68 34.86 27.69 30.94 32.89 37.37 38.62 34.88 34.26 33.52 32.84 33.18 34.74 34.52 35.08 39.69 41.27 42.08 43.67 42.83 38.47 37.64 42.67 40.56 38.39 37.98 36.92 35.67 33.17 29.98 26.15 27.46 32.09 41.72 43.76 45.28 46.93 48.06 49.29 47.90 47.50
37.84 28.48 39.78 41.54 33.08 33.92 31.02 33.52 37.02 36.91 39.32 37.41 37.38 36.18 34.27 33.38 33.48 34.43 35.08 39.25 45.53 44.27 40.40 43.29 38.86 33.02 34.84 42.12 44.47 40.05 37.42 32.94 26.74 28.94 29.86 29.32 35.66 45.45 45.58 45.70 47.47 47.45 45.64 44.07 43.57
35.59 35.48 40.60 38.82 29.24 30.62 33.97 34.14 36.90 36.16 37.21 36.88 35.02 35.34 37.50 36.53 32.91 36.07 37.20 44.76 45.70 43.50 40.98 43.66 38.24 32.10 34.63 38.80 42.41 38.23 39.37 36.92 35.04 34.83 30.84 28.24 33.93 46.56 47.86 47.92 47.53 44.24 43.00 43.08 43.07
36.48 29.53 33.82 34.61 35.46 33.70 31.96 32.22 33.04 38.45 37.50 38.44 38.33 38.47 34.87 35.09 37.64 35.94 37.41 44.04 46.19 45.69 47.35 46.50 37.61 31.77 29.34 33.06 37.35 35.73 38.56 38.80 37.31 30.84 32.67 32.92 39.44 45.08 45.79 44.94 44.86 42.76 42.97 42.73 42.45
36.42 28.91 36.86 31.37 31.84 33.42 34.36 33.80 31.60 32.92 37.41 38.60 36.97 36.67 36.27 32.22 35.63 35.82 38.47 39.39 43.99 44.13 43.69 44.57 36.23 37.91 39.19 40.70 40.65 38.35 38.32 37.94 36.60 36.71 34.53 37.65 39.98 44.09 45.16 45.39 42.77 42.94 43.17 42.00 41.13
37.11 35.10 37.84 34.29 34.76 32.80 34.26 32.64 31.61 34.43 35.98 35.16 34.79 36.49 37.75 35.66 36.35 34.85 37.56 39.06 40.20 43.05 41.46 43.18 35.43 38.49 37.99 41.92 42.30 38.87 39.90 39.93 39.70 40.73 40.96 41.33 41.73 46.71 46.70 43.64 42.67 42.98 42.14 40.10 39.86
43.32 42.75 38.06 35.20 34.03 32.50 32.86 33.70 33.70 35.85 37.75 38.56 37.74 37.05 36.34 38.90 40.79 41.41 42.10 41.87 41.52 41.17 40.64 40.26 37.56 33.39 33.04 40.50 40.85 35.49 40.25 39.49 41.23 42.73 42.13 38.58 43.22 46.92 42.68 42.46 42.02 41.35 41.56 40.10 39.33
MSLP
1018.88 1018.56 1018.25 1017.87 1017.51 1017.18 1016.83 1016.46 1016.09 1015.76 1015.44 1015.22 1014.97 1014.58 1014.18 1013.76 1013.19 1012.90 1012.03 1009.51 1009.48 1009.30 1009.63 1009.67 1009.82 1010.20 1010.29 1010.77 1010.91 1011.42 1012.26 1012.12 1011.25 1010.32 1009.06 1007.86 1007.05 1006.20 1005.81 1005.66 1005.34 1005.49 1005.77 1005.41 1005.61
1018.87 1018.46 1018.11 1017.72 1017.31 1016.94 1016.57 1016.21 1015.89 1015.61 1015.24 1014.88 1014.61 1014.43 1014.05 1013.55 1012.92 1011.30 1008.37 1008.55 1008.72 1008.81 1009.62 1009.78 1009.81 1010.18 1010.68 1010.76 1010.77 1011.12 1011.42 1010.77 1009.85 1009.12 1008.36 1007.45 1007.16 1006.70 1006.37 1005.90 1005.61 1005.57 1005.90 1006.10 1006.22
1018.82 1018.35 1017.97 1017.53 1017.17 1016.81 1016.43 1016.00 1015.69 1015.23 1014.81 1014.50 1014.38 1014.25 1013.98 1013.54 1012.66 1008.68 1007.29 1007.90 1008.33 1008.54 1009.09 1009.39 1009.67 1010.01 1010.60 1010.62 1010.51 1010.18 1009.59 1009.32 1008.87 1008.28 1007.95 1007.42 1007.12 1006.56 1006.29 1006.14 1005.82 1005.74 1005.83 1006.49 1006.78
1018.89 1018.44 1017.95 1017.51 1017.06 1016.61 1016.13 1015.71 1015.32 1014.84 1014.48 1014.27 1014.16 1013.98 1013.81 1013.76 1011.68 1007.58 1006.95 1007.61 1007.74 1008.41 1009.01 1009.05 1009.60 1010.22 1010.52 1010.35 1009.93 1009.89 1009.04 1008.72 1008.28 1007.86 1007.69 1007.49 1006.75 1006.23 1006.28 1006.15 1005.58 1005.59 1005.61 1006.20 1006.54
1018.94 1018.42 1017.92 1017.44 1016.96 1016.44 1015.93 1015.43 1014.97 1014.41 1014.14 1013.97 1013.82 1013.73 1013.62 1013.21 1010.43 1007.65 1007.40 1007.72 1007.42 1008.26 1008.66 1008.62 1008.97 1009.46 1009.81 1009.66 1009.64 1009.27 1008.85 1008.32 1007.89 1007.81 1007.53 1007.14 1006.51 1006.49 1006.26 1006.08 1005.45 1005.45 1005.66 1005.83 1006.08
1018.99 1018.48 1017.88 1017.35 1016.75 1016.09 1015.49 1014.83 1014.41 1014.03 1013.81 1013.53 1013.36 1013.27 1013.21 1011.53 1008.23 1007.64 1007.57 1007.59 1007.55 1007.75 1008.29 1008.64 1008.04 1008.25 1008.68 1008.80 1008.88 1008.13 1008.08 1008.04 1007.85 1007.63 1007.53 1007.10 1006.39 1006.64 1005.61 1005.30 1005.37 1005.36 1005.09 1005.18 1005.47
1018.97 1018.40 1017.78 1017.08 1016.42 1015.72 1014.99 1014.17 1013.40 1013.10 1012.86 1012.70 1012.65 1012.73 1011.65 1008.63 1007.65 1007.17 1007.40 1007.47 1007.33 1007.49 1007.92 1007.71 1007.86 1007.71 1007.93 1008.14 1007.81 1007.94 1008.15 1007.85 1007.64 1007.52 1007.40 1007.02 1006.14 1005.78 1005.69 1005.42 1005.10 1004.92 1004.90 1005.04 1005.23
1018.51 1017.96 1017.32 1016.45 1015.67 1015.04 1014.44 1013.53 1012.25 1011.92 1011.47 1011.11 1011.33 1011.72 1009.57 1007.49 1006.60 1006.87 1007.23 1007.50 1007.49 1007.64 1007.96 1007.88 1007.75 1007.97 1007.81 1007.48 1007.53 1007.77 1007.99 1007.90 1007.05 1007.22 1007.03 1006.76 1005.62 1005.36 1005.02 1005.06 1005.12 1004.65 1005.05 1005.17 1005.12
1018.25 1017.65 1016.99 1016.09 1015.07 1014.32 1013.64 1012.60 1011.21 1010.47 1009.61 1009.61 1010.47 1010.58 1008.15 1006.63 1006.19 1005.51 1006.03 1006.10 1006.74 1007.30 1007.72 1007.81 1007.63 1007.81 1007.59 1007.71 1008.01 1007.48 1007.33 1007.24 1006.92 1006.39 1006.46 1006.44 1005.66 1004.55 1004.36 1004.76 1004.72 1004.69 1004.98 1005.08 1005.12
1018.03 1017.37 1016.60 1015.86 1014.78 1013.70 1012.87 1011.72 1010.01 1009.65 1009.34 1009.39 1009.64 1010.32 1007.58 1005.44 1004.84 1004.28 1004.36 1005.47 1006.28 1006.49 1007.54 1007.42 1007.32 1007.31 1007.57 1007.18 1005.52 1006.74 1006.78 1006.43 1006.06 1005.58 1005.71 1006.09 1005.80 1004.94 1004.53 1004.68 1004.62 1004.67 1004.78 1005.18 1005.21
1017.67 1017.05 1016.16 1015.48 1014.34 1013.36 1012.49 1011.63 1010.48 1010.18 1009.62 1008.44 1007.22 1005.86 1004.60 1004.00 1003.59 1003.84 1004.38 1005.34 1006.13 1006.06 1005.79 1005.95 1006.28 1004.47 1004.17 1005.46 1005.99 1005.96 1005.87 1005.64 1005.30 1004.89 1005.05 1005.60 1005.68 1005.22 1004.45 1004.77 1004.88 1004.87 1005.14 1005.23 1005.20
1017.24 1016.53 1015.70 1014.98 1013.77 1013.07 1012.62 1012.71 1012.11 1012.36 1009.61 1007.79 1006.06 1005.35 1003.67 1003.60 1003.84 1003.28 1004.23 1004.42 1005.32 1005.05 1005.27 1005.76 1003.25 1003.98 1005.08 1005.60 1005.82 1005.87 1005.66 1005.47 1004.95 1004.75 1004.87 1005.08 1005.28 1004.79 1004.42 1004.37 1004.26 1004.24 1004.68 1004.76 1004.88
1016.86 1015.97 1015.13 1014.26 1013.22 1012.77 1012.83 1012.46 1011.90 1012.04 1010.70 1006.23 1004.00 1003.59 1002.74 1002.75 1002.39 1001.72 1003.35 1003.49 1003.74 1004.11 1003.80 1003.10 1002.76 1003.70 1004.24 1004.64 1004.99 1004.90 1004.98 1005.13 1004.93 1004.97 1004.93 1004.88 1005.02 1004.60 1003.94 1003.74 1003.66 1003.72 1003.66 1004.23 1004.53
1016.36 1015.47 1014.52 1013.88 1012.82 1012.94 1012.45 1011.66 1011.79 1011.90 1010.48 1005.04 1002.78 1001.67 1001.71 1001.74 1001.52 1000.65 1001.01 1002.57 1002.68 1002.42 1002.99 1002.66 1002.06 1002.17 1002.69 1003.01 1003.75 1004.37 1004.72 1004.85 1005.10 1005.60 1005.98 1005.31 1005.57 1004.67 1003.99 1003.79 1003.71 1003.69 1004.05 1004.20 1004.29
1015.95 1015.06 1014.19 1013.54 1013.28 1012.90 1011.87 1011.57 1011.34 1011.59 1009.39 1003.37 1001.77 1001.52 1000.97 1001.21 1000.64 999.64 999.82 1000.75 1000.68 1000.91 1001.69 1000.72 1000.89 1001.37 1001.93 1001.82 1003.10 1003.43 1003.91 1004.71 1005.35 1006.02 1006.35 1006.24 1006.30 1004.98 1004.47 1004.36 1004.09 1004.27 1005.06 1005.21 1004.98
1015.61 1014.55 1013.80 1013.50 1013.52 1011.96 1011.43 1011.41 1011.45 1010.85 1007.22 1003.41 1001.87 1001.62 1001.54 1000.14 999.43 999.87 999.10 999.22 1000.01 1001.24 1000.97 1000.67 1000.02 1000.55 1000.32 1001.48 1002.06 1002.43 1003.72 1004.89 1005.89 1006.91 1007.03 1006.76 1006.85 1005.80 1005.68 1005.94 1005.85 1005.50 1005.89 1005.76 1005.61
1014.98 1013.80 1013.16 1013.18 1012.54 1011.57 1011.55 1011.35 1011.01 1009.24 1005.90 1003.75 1002.62 1002.04 1001.07 999.79 999.30 999.80 999.62 998.91 999.06 1000.00 999.98 1000.13 999.64 999.28 999.98 1000.79 1001.68 1001.71 1002.98 1005.11 1007.08 1007.60 1007.01 1006.29 1007.24 1006.17 1006.32 1006.32 1006.50 1006.58 1007.07 1006.76 1006.44
1014.36 1013.24 1013.03 1012.48 1011.72 1011.55 1011.54 1011.37 1010.47 1008.22 1006.46 1004.82 1003.56 1002.53 1001.27 999.86 999.54 999.96 999.90 999.26 998.63 998.55 999.30 999.43 999.73 999.21 998.62 998.95 999.28 1000.73 1001.69 1003.30 1005.07 1006.46 1007.16 1007.12 1006.88 1006.69 1006.73 1006.74 1006.96 1007.27 1007.50 1007.02 1007.09
1014.26 1013.45 1013.05 1011.97 1011.46 1011.49 1011.69 1011.43 1010.55 1009.04 1007.77 1006.23 1004.64 1002.79 1001.73 1000.50 1000.22 999.83 999.99 999.62 998.92 998.30 998.33 998.79 998.19 998.11 997.66 997.99 998.71 1000.18 1001.07 1002.01 1004.26 1005.55 1006.94 1007.33 1007.49 1007.28 1007.17 1007.22 1007.53 1007.82 1007.82 1007.75 1008.03
1015.02 1014.70 1013.00 1011.55 1011.30 1011.41 1011.78 1011.53 1010.31 1009.42 1008.32 1007.00 1005.80 1004.21 1002.76 1001.46 1000.94 1000.00 999.82 999.69 999.06 998.56 998.30 998.02 998.05 997.48 997.56 997.72 998.52 998.61 1000.46 1002.27 1003.84 1005.41 1006.80 1007.40 1007.39 1007.16 1007.60 1007.72 1007.98 1008.30 1008.33 1008.56 1008.84
1015.19 1014.68 1012.51 1011.23 1011.27 1011.81 1012.59 1011.80 1010.19 1009.01 1008.40 1007.45 1006.03 1005.10 1003.75 1002.33 1001.28 1000.28 999.77 999.24 999.23 998.48 998.75 997.92 997.84 998.10 997.77 997.87 998.69 999.28 1000.13 1001.74 1003.14 1004.64 1005.75 1007.25 1007.46 1006.82 1007.34 1007.80 1008.24 1008.80 1009.12 1009.33 1009.67
1015.87 1015.00 1012.74 1011.99 1012.27 1013.12 1012.83 1012.23 1010.86 1008.85 1008.05 1007.27 1006.45 1005.52 1004.44 1003.30 1001.87 1000.81 999.70 999.02 998.53 998.53 998.44 998.35 998.56 999.01 998.59 998.89 999.22 999.16 1000.12 1001.26 1002.63 1004.68 1005.33 1005.89 1007.36 1006.96 1007.50 1008.12 1008.60 1009.39 1009.95 1010.44 1010.69
1016.98 1015.94 1013.41 1013.17 1013.69 1013.25 1012.66 1011.71 1010.56 1009.49 1008.05 1007.21 1006.58 1005.95 1004.98 1003.60 1002.77 1001.16 1000.05 998.75 998.39 998.48 998.71 998.51 998.78 998.91 999.36 999.60 999.37 999.76 999.96 1000.40 1001.68 1003.24 1004.69 1005.53 1007.27 1007.40 1007.86 1008.61 1009.40 1009.71 1010.57 1011.33 1011.86
1017.57 1016.88 1015.38 1014.83 1014.70 1014.31 1012.93 1011.60 1010.30 1009.32 1008.26 1007.73 1006.55 1006.02 1004.91 1003.73 1002.81 1001.68 1000.73 999.29 998.91 998.69 998.77 998.69 998.82 998.32 997.87 997.14 998.31 999.17 999.32 999.95 1001.17 1002.84 1003.95 1004.87 1006.20 1007.26 1008.11 1008.89 1009.66 1010.63 1011.24 1012.11 1012.92
1018.06 1018.25 1017.62 1016.10 1014.65 1014.49 1013.46 1012.23 1010.86 1009.61 1008.82 1007.84 1006.84 1006.18 1005.09 1004.09 1003.23 1002.56 1001.76 1000.53 999.60 999.74 999.33 999.15 998.75 998.15 997.24 997.33 997.67 998.22 998.82 999.66 1000.65 1001.59 1002.77 1004.47 1005.06 1006.36 1007.64 1008.90 1010.05 1011.06 1011.98 1012.91 1014.05
1018.85 1018.53 1017.62 1016.62 1015.76 1014.64 1013.41 1012.42 1011.61 1010.18 1009.69 1008.20 1007.58 1006.38 1005.38 1004.54 1004.14 1003.34 1002.80 1001.53 1000.69 1000.06 999.63 999.01 998.98 998.42 998.10 997.51 997.55 998.04 998.55 999.16 1000.24 1001.60 1002.58 1004.10 1005.96 1007.13 1008.30 1009.51 1010.72 1011.72 1012.45 1013.80 1015.16
1018.63 1018.45 1017.96 1016.47 1015.64 1014.81 1014.01 1013.15 1011.99 1010.94 1009.59 1008.87 1007.78 1006.42 1005.29 1004.59 1003.88 1003.22 1003.03 1002.44 1001.86 1000.84 999.69 999.19 999.17 999.42 1000.05 998.90 998.45 999.20 999.62 999.77 1000.60 1001.48 1002.31 1004.05 1005.67 1007.29 1009.16 1010.45 1011.63 1012.73 1013.43 1014.78 1016.05
Wind_Speed
18 18 18 18 18 19 20 20 19 19 18 16 17 17 17 19 19 10 13 15 13 22 5 3 5 5 4 4 5 4 2 4 6 7 5 2 2 1 0 2 2 2 4 4 14
19 18 17 17 18 19 19 19 19 19 18 17 15 17 16 18 16 17 15 12 18 2 7 9 6 8 4 5 4 6 5 11 8 6 3 2 1 1 2 5 3 3 4 5 12
19 20 18 19 19 20 20 20 20 19 18 17 15 15 14 13 7 9 3 15 15 13 5 5 5 6 5 4 5 7 8 6 5 5 8 5 2 5 4 5 5 4 4 8 7
21 21 22 22 22 22 22 22 21 20 20 18 16 14 13 5 8 1 13 11 6 11 5 8 6 7 7 8 7 4 7 4 8 7 5 5 3 6 7 8 8 4 5 9 12
22 23 23 23 24 24 24 24 22 22 21 18 16 13 5 7 16 6 16 11 5 13 12 9 9 9 9 7 5 4 4 6 12 8 6 6 11 9 2 6 11 9 8 13 14
22 23 24 24 25 25 24 24 23 23 22 20 16 13 7 20 9 8 9 6 6 9 13 7 10 6 6 6 10 6 11 10 5 6 5 8 10 6 3 5 8 8 12 14 16
21 22 24 25 25 25 24 26 27 25 25 22 18 11 16 26 7 6 5 2 1 5 7 13 3 10 8 3 8 4 3 5 5 8 8 3 14 7 9 9 12 7 9 7 14
20 21 25 26 27 26 27 27 31 30 29 24 18 10 16 5 22 28 23 21 15 6 1 5 6 2 5 2 3 5 6 9 7 9 8 10 9 3 7 7 11 11 8 8 9
23 23 25 28 29 29 29 30 35 31 24 16 8 8 12 6 11 14 19 15 19 19 6 9 6 5 2 4 3 4 5 5 2 10 7 9 4 12 10 9 12 9 7 8 6
25 24 25 27 29 30 29 33 29 10 4 8 0 5 7 7 5 5 5 17 8 10 9 8 5 7 8 9 17 6 6 4 7 8 10 6 3 9 3 5 9 7 7 8 8
28 26 26 26 29 29 25 9 7 3 3 9 11 11 2 6 3 5 6 13 5 7 15 12 11 23 25 22 13 12 4 9 5 7 6 7 6 10 8 4 8 9 8 9 10
29 29 28 27 29 31 7 2 4 2 16 18 28 24 27 18 16 18 14 8 8 8 13 8 28 18 9 14 15 13 6 4 2 4 5 4 5 8 4 6 9 11 9 10 6
29 29 29 28 29 6 1 6 4 6 7 12 11 8 9 12 20 31 19 7 7 10 24 18 5 17 17 17 19 19 14 6 5 2 1 2 5 5 5 5 6 7 6 7 11
30 29 30 28 9 2 5 2 2 1 6 11 5 5 1 4 7 15 19 21 13 18 19 17 14 24 22 21 17 18 10 6 6 4 3 3 5 4 3 6 6 9 8 7 8
31 32 31 23 5 4 5 2 2 3 6 5 2 8 2 6 12 0 7 21 27 17 15 12 13 16 23 21 19 7 16 11 4 4 2 2 4 8 1 3 7 3 8 5 6
32 32 29 3 2 7 5 7 2 3 7 8 1 8 9 14 2 10 10 12 15 19 15 12 13 15 19 20 17 13 14 8 5 5 4 7 6 7 1 3 7 4 5 6 6
32 32 16 2 5 0 3 3 1 4 8 8 10 9 20 8 5 4 8 11 11 17 21 17 18 15 17 17 17 18 17 5 1 3 6 9 6 5 3 4 5 2 4 7 8
33 27 4 4 7 2 1 2 1 5 13 13 14 21 11 7 1 3 9 8 11 6 15 16 15 16 17 21 14 13 12 7 7 6 4 1 7 4 2 3 4 5 7 12 13
27 5 5 5 7 2 2 3 3 6 10 12 16 8 4 6 5 4 3 4 13 4 8 12 9 17 13 10 16 23 11 9 7 1 7 4 3 2 4 6 6 8 12 14 14
9 4 5 9 3 3 4 4 5 12 14 7 7 5 6 7 8 7 5 2 4 2 4 6 5 18 12 12 9 23 12 9 2 6 6 3 5 6 5 7 8 10 15 15 14
3 5 5 16 2 6 4 6 15 16 18 5 3 6 9 11 5 5 2 3 8 5 10 3 4 1 14 6 18 10 12 5 6 4 7 6 3 4 6 6 12 11 12 12 13
4 4 5 7 7 3 7 13 18 14 14 5 6 6 5 8 7 4 4 6 9 0 3 3 3 3 5 7 12 4 14 6 7 2 3 4 3 3 7 7 9 11 10 9 12
7 4 5 5 8 10 8 12 8 18 17 4 4 3 7 4 5 5 6 6 12 7 5 4 3 6 10 7 7 7 5 6 5 4 6 6 4 4 7 8 7 15 13 12 13
4 6 5 5 2 9 14 10 18 18 14 12 7 6 7 3 7 6 10 5 4 5 8 3 3 5 4 7 11 14 13 8 6 5 5 2 12 10 11 12 10 12 14 13 12
4 3 2 8 9 13 16 8 23 17 4 11 5 18 15 4 7 6 7 10 8 8 4 4 3 1 9 16 15 12 16 13 8 6 7 9 15 18 14 15 13 13 15 15 12
4 3 2 10 10 13 9 10 20 21 9 10 9 22 15 4 5 8 8 4 7 6 5 4 2 1 5 10 9 9 13 15 7 8 10 16 11 11 11 16 16 15 16 14 12
1 3 3 6 6 9 7 14 25 22 8 12 19 17 11 9 15 14 7 8 6 6 5 6 3 5 4 3 5 7 2 4 6 1 19 9 11 20 18 16 15 14 15 16 14
Wind_Direction
337 337 337 336 336 334 331 327 326 325 321 318 318 314 318 314 307 295 249 220 191 240 237 314 131 155 114 167 162 125 139 205 210 175 224 284 180 221 341 265 299 342 291 297 132
340 337 336 333 332 330 329 329 327 324 320 313 317 319 316 314 303 267 241 215 213 242 174 193 155 137 159 188 187 157 181 207 202 177 175 251 235 268 264 326 310 304 43 94 143
340 335 331 330 328 327 327 326 325 323 317 315 316 317 316 320 315 248 259 208 215 209 206 179 143 146 171 150 202 201 222 176 200 175 195 241 272 211 175 261 204 255 227 162 171
341 338 334 330 327 326 323 321 319 313 308 311 312 308 305 329 284 49 150 20 273 187 188 152 154 164 192 194 211 228 212 182 207 209 190 220 231 278 171 231 246 221 210 176 191
343 340 337 332 329 325 322 318 313 305 305 304 303 298 299 234 249 282 304 336 305 162 192 179 161 160 178 190 185 204 220 209 230 229 239 271 254 258 246 266 260 262 213 209 206
342 339 334 331 328 324 319 312 307 302 301 298 289 277 239 247 264 256 272 285 192 160 182 197 200 178 170 202 183 205 194 226 232 227 230 221 253 179 287 330 269 257 246 212 209
339 334 330 326 322 318 314 310 305 301 298 290 279 259 239 240 251 221 215 237 270 168 178 207 209 173 147 195 208 230 261 272 205 218 249 170 275 213 225 245 267 254 229 220 217
334 331 328 323 319 317 315 309 301 301 294 279 264 239 255 241 244 252 259 268 273 277 162 301 256 299 199 268 50 145 158 232 198 176 240 155 258 255 225 202 242 244 206 218 224
332 329 325 322 318 317 316 310 302 302 293 261 222 195 259 308 242 247 228 218 213 247 235 260 167 210 212 111 6 232 186 175 180 178 194 175 226 252 219 200 231 237 196 214 232
333 329 323 321 317 315 318 314 303 304 72 124 230 189 257 234 211 212 189 200 213 192 192 199 194 182 204 186 215 190 155 181 173 204 185 176 241 285 272 184 231 226 215 198 212
332 329 323 323 318 316 325 330 10 325 302 211 200 212 301 207 199 183 120 143 222 178 182 180 186 205 197 206 218 192 154 183 187 195 147 206 203 244 259 207 243 249 229 227 215
330 329 326 325 320 319 316 309 253 278 291 251 249 251 247 258 275 253 144 147 178 199 182 166 220 198 188 192 204 232 190 188 252 144 140 185 227 232 227 220 199 219 220 218 218
328 326 323 324 319 341 172 245 305 341 271 277 222 228 233 205 237 255 218 199 191 190 191 198 240 177 190 184 194 210 206 168 131 63 48 112 302 238 243 220 213 234 217 202 213
324 324 327 333 324 313 280 249 6 183 286 274 229 271 160 218 225 234 219 211 215 197 195 224 218 180 189 203 184 205 174 156 148 93 188 115 265 279 237 258 218 225 210 219 235
323 327 329 327 284 292 261 354 344 111 308 320 39 5 235 174 272 216 190 197 213 202 169 207 179 197 199 199 183 197 161 178 142 132 102 285 81 265 340 237 229 59 75 53 337
325 327 332 23 285 243 305 319 110 238 268 302 52 344 303 304 263 328 248 179 202 197 217 220 177 196 196 196 179 155 159 144 71 105 256 193 138 281 90 297 309 1 36 42 13
328 325 329 247 254 235 331 300 243 216 320 320 326 343 316 296 286 29 338 173 164 173 203 195 224 200 165 178 195 162 154 118 106 190 216 180 140 230 320 323 250 293 45 74 68
327 320 284 230 264 327 340 289 277 281 294 324 317 314 287 330 221 116 335 197 227 207 166 187 197 205 184 185 173 183 161 149 154 153 157 193 186 263 35 42 65 86 86 77 71
327 332 321 266 283 117 33 353 303 312 317 309 310 288 285 329 312 295 150 278 210 200 163 186 218 177 190 158 160 186 195 153 106 167 112 168 62 59 70 62 73 87 87 83 83
327 352 281 309 335 72 64 303 283 316 304 299 295 303 304 320 317 340 357 224 299 256 7 223 123 177 191 163 165 181 154 155 18 147 125 211 166 171 166 139 116 106 99 91 84
29 1 272 333 70 40 31 287 302 309 311 289 302 283 278 304 303 294 236 221 201 199 250 315 113 339 176 183 169 145 169 133 135 128 142 138 223 200 156 153 134 118 104 99 91
343 350 313 349 33 353 341 326 308 309 321 271 273 257 264 302 307 313 309 320 180 345 168 157 124 110 176 174 187 135 169 119 129 175 88 116 154 92 126 126 135 112 94 88 90
338 290 316 25 18 354 328 318 316 325 327 325 290 333 296 289 289 247 283 322 154 144 182 200 122 129 116 88 210 212 180 141 112 102 186 125 185 123 125 119 131 116 106 100 101
357 336 323 15 274 339 333 331 334 334 319 328 291 311 302 274 221 293 323 325 49 21 215 199 141 187 179 129 134 188 181 165 134 117 160 192 135 152 141 139 120 106 108 104 92
33 333 325 316 336 328 326 301 334 342 311 326 314 337 344 326 352 356 350 333 44 15 351 208 167 210 130 136 146 150 171 175 168 159 146 173 153 163 150 140 124 118 113 101 91
358 343 297 290 294 324 329 332 332 328 317 318 320 327 325 318 343 312 325 329 17 26 309 228 108 72 73 100 116 140 168 177 161 95 65 114 84 118 104 113 121 123 113 98 87
326 251 251 301 303 327 337 324 322 323 301 304 315 316 313 338 314 297 274 276 274 314 340 19 56 62 39 22 116 75 27 126 107 121 140 145 153 132 126 121 124 124 112 108 102